Weather History for KMCK - March, 2014

Change the Weather History Date:

Sunday, March 30, 2014

  Actual Average Record
Temperature  
Mean Temperature 56 °F 44 °F  
Max Temperature 72 °F 59 °F 93 °F (1943)
Min Temperature 40 °F 28 °F 2 °F (1987)
Degree Days  
Heating Degree Days 9    
Growing Degree Days 6 (Base 50)    
Moisture  
Dew Point 29 °F    
Average Humidity 36    
Maximum Humidity 53    
Minimum Humidity 18    
Precipitation  
Precipitation 0.00 in 0.06 in 1.37 in (1949)
Month to date precipitation 0.16 1.31  
Year to date precipitation 0.65 2.44  
Sea Level Pressure  
Sea Level Pressure 29.68 in    
Wind  
Wind Speed 9 mph (South)    
Max Wind Speed 25 mph    
Max Gust Speed 32 mph    
Visibility 10 miles    
Events      
T = Trace of Precipitation, MM = Missing Value Source: NWS Daily Summary

Daily Weather History Graph

Daily Weather History Graph

Search for Another Location

Airport or City:

Trip Planner

Search our weather history database for the weather conditions in past years. The results will help you decide how hot, cold, wet, or windy it might be!

Date:

Astronomy

Mar. 30, 2014 Rise Set
Actual Time 7:29 AM CDT 8:04 PM CDT
Civil Twilight 7:02 AM CDT 8:32 PM CDT
Nautical Twilight 6:29 AM CDT 9:04 PM CDT
Astronomical Twilight 5:56 AM CDT 9:37 PM CDT
Moon 7:16 AM CDT (3/30) 8:19 PM CDT (3/30)
Length of Visible Light 13h 30m
Length of Day
12h 35m
Waning Crescent, 0% of the Moon is Illuminated
Mar 30
Waning Crescent
Mar 30
New
Apr 7
First Quarter
Apr 15
Full
Apr 22
Last Quarter

Hourly Weather History & Observations

Time (CDT) Temp. Windchill Dew Point Humidity Pressure Visibility Wind Dir Wind Speed Gust Speed Precip Events Conditions
12:53 AM 54.0 °F - 25.0 °F 33% 29.86 in 10.0 mi South 15.0 mph 23.0 mph N/A   Clear
1:53 AM 53.1 °F - 25.0 °F 34% 29.85 in 10.0 mi South 5.8 mph - N/A   Clear
2:53 AM 50.0 °F - 25.0 °F 38% 29.83 in 10.0 mi South 9.2 mph - N/A   Clear
3:53 AM 48.0 °F - 26.1 °F 42% 29.81 in 10.0 mi South 6.9 mph - N/A   Clear
4:53 AM 43.0 °F 39.5 °F 25.0 °F 49% 29.80 in 10.0 mi East 5.8 mph - N/A   Clear
5:53 AM 42.1 °F 37.7 °F 25.0 °F 51% 29.78 in 10.0 mi SE 6.9 mph - N/A   Clear
6:53 AM 44.1 °F 40.8 °F 25.0 °F 47% 29.78 in 10.0 mi WSW 5.8 mph - N/A   Clear
7:53 AM 41.0 °F 37.1 °F 25.0 °F 53% 29.78 in 10.0 mi SSW 5.8 mph - N/A   Clear
8:53 AM 44.1 °F 39.0 °F 27.0 °F 51% 29.80 in 10.0 mi WSW 9.2 mph - N/A   Clear
9:53 AM 46.0 °F 43.9 °F 28.0 °F 50% 29.78 in 10.0 mi West 4.6 mph - N/A   Clear
10:53 AM 48.9 °F - 30.0 °F 48% 29.77 in 10.0 mi SSW 4.6 mph - N/A   Clear
11:53 AM 57.9 °F - 30.0 °F 35% 29.75 in 10.0 mi Calm Calm - N/A   Clear
12:53 PM 59.0 °F - 30.0 °F 33% 29.72 in 10.0 mi Variable 3.5 mph - N/A   Clear
1:53 PM 62.1 °F - 30.0 °F 30% 29.70 in 10.0 mi Calm Calm - N/A   Clear
2:53 PM 66.9 °F - 30.0 °F 25% 29.66 in 10.0 mi Calm Calm - N/A   Clear
3:53 PM 70.0 °F - 30.0 °F 23% 29.62 in 10.0 mi SE 6.9 mph - N/A   Clear
4:53 PM 71.1 °F - 32.0 °F 24% 29.59 in 10.0 mi East 8.1 mph - N/A   Clear
5:53 PM 71.1 °F - 25.0 °F 18% 29.57 in 10.0 mi SSE 12.7 mph - N/A   Clear
6:53 PM 68.0 °F - 30.0 °F 24% 29.55 in 10.0 mi SSE 6.9 mph - N/A   Clear
7:53 PM 64.9 °F - 30.9 °F 28% 29.52 in 10.0 mi SE 11.5 mph - N/A   Clear
8:53 PM 63.0 °F - 32.0 °F 31% 29.49 in 10.0 mi SSE 8.1 mph - N/A   Clear
9:53 PM 63.0 °F - 33.1 °F 33% 29.46 in 10.0 mi SE 11.5 mph - N/A   Clear
10:53 PM 60.1 °F - 33.1 °F 36% 29.42 in 10.0 mi SSE 15.0 mph - N/A   Clear
11:53 PM 66.0 °F - 36.0 °F 33% 29.38 in 10.0 mi South 25.3 mph 32.2 mph N/A   Clear